Theta_e
348 351 353 356 369 364 367 366 360 360 359 352 350 355 359 358 360 360 347 343 346 341 341 348 347 350 350 349 347 352 349 353 348 348 348 349 349 352 351 353 353 353 351 349 344 344 346 352 352
355 357 357 360 368 368 366 359 361 357 353 349 351 353 355 359 351 351 348 343 347 346 343 347 347 341 350 349 346 352 353 353 351 349 350 348 350 350 353 353 354 353 352 350 350 350 352 346 349
358 357 361 369 365 363 366 358 357 353 350 352 353 349 352 354 350 348 345 348 348 347 348 347 349 341 348 352 352 353 352 353 352 352 351 348 351 352 352 352 353 352 352 350 351 353 347 343 346
360 358 362 369 362 359 359 356 352 354 351 351 349 353 346 344 347 346 347 350 350 348 347 347 349 351 352 353 353 353 352 351 353 351 353 347 352 351 352 353 352 353 352 350 351 351 350 341 342
355 358 369 361 357 357 354 353 352 355 353 352 350 351 349 345 346 348 349 349 349 349 346 347 351 350 352 352 353 354 352 352 351 353 353 353 351 349 351 353 353 352 352 352 352 351 346 338 339
353 354 363 352 351 355 354 351 352 353 351 351 349 348 348 346 348 349 349 349 350 350 345 351 352 351 350 353 353 354 353 352 348 349 352 351 349 350 351 353 353 352 353 352 351 349 345 340 339
356 358 363 351 353 352 353 350 352 353 352 353 347 350 346 345 348 348 349 349 350 349 347 348 350 353 352 352 353 351 352 352 346 345 350 347 349 350 353 353 353 354 353 352 350 345 343 342 340
356 362 361 357 352 352 347 347 349 351 352 348 345 350 351 346 348 346 349 349 350 349 348 347 348 348 348 349 351 352 352 351 345 349 347 349 348 351 353 353 351 354 354 351 350 345 343 342 341
346 364 364 355 351 348 345 347 347 348 350 349 349 345 344 347 348 347 348 348 347 347 345 346 346 346 342 340 344 350 352 351 352 351 348 346 348 349 351 350 354 354 352 352 347 343 339 339 340
356 363 358 349 348 346 346 347 348 350 351 352 346 345 347 346 345 346 345 346 346 346 345 346 345 338 346 349 346 346 346 345 345 344 342 341 350 351 350 349 353 355 352 351 349 344 338 338 344
360 363 350 350 349 347 347 347 346 352 354 350 348 346 343 343 345 345 346 346 347 346 345 347 347 349 349 350 349 338 344 345 347 351 350 349 350 350 350 349 349 351 350 341 343 340 345 344 348
357 353 351 352 351 349 349 347 348 348 351 346 344 342 342 345 344 344 345 345 346 346 346 347 348 349 349 350 347 345 349 349 348 351 350 351 351 350 351 348 348 347 346 348 343 341 346 348 346
355 351 351 351 352 350 350 349 349 350 346 343 341 340 341 340 340 341 344 343 346 346 347 347 347 350 349 349 348 352 351 350 350 351 350 351 350 351 351 349 350 342 351 349 348 348 348 348 347
349 350 348 347 353 352 350 349 348 347 342 341 341 340 339 338 337 339 341 342 343 344 345 347 347 349 349 349 352 352 353 352 351 351 350 350 352 350 350 349 350 348 348 350 349 347 346 347 346
347 348 345 349 350 345 344 346 352 345 343 343 342 341 339 338 337 336 338 340 342 341 346 350 348 347 351 349 347 349 350 351 351 350 351 350 351 350 350 350 350 348 348 350 348 347 346 346 344
347 348 352 347 348 344 346 352 350 346 343 343 342 341 340 338 337 337 336 338 341 342 343 349 350 350 352 353 353 349 347 351 351 351 350 351 350 351 350 349 347 346 348 348 350 346 345 343 342
344 348 346 347 345 350 350 355 346 350 345 343 342 343 342 339 338 338 338 338 342 344 346 349 352 349 352 353 346 342 350 350 350 350 352 354 349 349 349 346 347 345 345 350 349 348 346 345 346
342 350 348 348 346 350 352 354 347 350 350 346 344 343 344 343 340 340 341 343 344 346 347 349 352 351 350 349 345 343 350 352 350 349 350 351 351 352 350 346 349 345 346 348 349 349 349 351 348
339 344 349 346 344 343 352 356 354 352 351 348 346 345 344 344 343 342 343 343 345 345 347 346 347 351 351 349 351 348 350 351 351 349 350 351 351 351 351 348 349 345 347 349 351 350 350 350 350
326 327 334 343 340 338 352 359 356 351 351 346 349 347 346 345 343 343 344 345 345 348 347 347 348 350 350 347 345 349 349 352 351 351 351 352 352 352 351 352 350 345 349 349 350 349 350 350 351
323 323 326 332 341 340 352 354 347 343 341 346 346 348 347 346 345 344 344 344 344 345 348 347 347 348 347 345 342 352 354 352 350 350 349 351 352 352 354 352 348 346 349 348 350 351 353 350 351
322 326 327 327 326 333 337 358 350 346 345 340 343 349 349 347 346 344 343 342 342 347 347 345 348 347 347 345 347 350 352 351 349 344 343 339 349 353 353 354 351 351 351 350 350 351 351 349 351
325 326 327 327 325 325 328 349 350 343 342 342 340 345 350 348 347 346 344 342 342 348 350 346 350 348 349 352 351 350 353 351 350 349 344 347 349 350 353 354 352 352 351 351 352 350 349 352 351
324 324 327 324 323 326 328 343 342 346 343 344 343 344 344 348 347 346 344 342 343 348 352 348 349 350 348 347 351 354 353 354 351 346 337 343 351 352 349 354 354 355 353 353 353 350 351 354 351
327 325 326 330 328 333 336 337 336 341 341 341 338 336 342 347 347 346 344 342 342 349 351 351 350 352 349 347 346 353 357 355 354 352 349 350 350 352 352 354 354 354 353 351 352 353 352 352 353
327 326 325 329 328 328 331 335 335 336 335 336 338 340 341 339 348 347 345 343 343 347 349 355 350 356 355 353 353 351 352 357 356 354 350 352 352 352 352 350 353 352 350 354 355 353 352 351 352
327 325 326 324 325 329 335 334 333 335 334 344 345 349 349 349 348 347 345 345 344 345 349 353 355 353 355 356 358 357 354 352 354 358 353 353 354 352 347 353 354 351 345 353 356 353 351 353 353
328 328 325 323 329 332 339 341 341 339 343 347 348 352 352 351 348 348 346 346 344 346 347 350 355 356 355 355 356 361 361 358 355 358 358 357 358 353 351 355 352 353 351 351 356 354 351 353 356
329 326 323 322 327 331 334 341 340 343 344 348 351 353 354 351 351 346 350 349 345 347 348 350 354 356 358 359 356 357 361 362 361 358 358 357 358 357 352 353 352 353 353 353 354 354 353 353 353
330 326 323 323 326 325 329 341 336 337 346 352 354 355 353 348 347 342 345 344 349 344 346 348 358 358 358 359 362 360 361 363 364 362 357 363 359 357 354 351 351 352 355 352 355 355 354 356 354
Wind_Speed
10 8 5 3 2 2 4 4 9 7 5 13 14 14 12 10 3 3 20 21 21 21 20 19 18 17 17 16 15 15 16 14 14 15 15 15 12 12 12 12 13 15 16 19 20 20 17 15 16
10 8 3 2 2 3 4 7 8 9 8 7 13 13 9 6 7 11 12 28 23 19 22 20 19 18 17 16 16 16 14 12 12 14 14 13 10 10 11 11 14 15 17 19 19 16 16 15 16
11 7 2 3 3 3 5 8 14 15 12 5 5 8 4 6 9 15 25 27 26 21 20 22 20 18 17 16 15 16 13 11 11 12 12 10 9 9 10 11 14 15 16 17 18 16 15 15 16
5 1 3 4 12 3 8 10 12 14 13 7 12 8 5 4 2 16 30 24 22 26 21 23 21 19 18 16 15 14 12 10 9 9 10 8 9 8 10 11 14 14 15 16 15 15 14 14 14
3 2 4 4 10 8 11 14 16 15 10 14 10 5 4 2 13 29 27 24 24 25 23 23 20 19 17 16 14 13 12 9 8 7 8 6 7 8 8 10 12 13 14 14 14 13 13 13 13
0 1 3 2 9 12 13 13 15 12 14 16 10 10 3 5 12 26 29 25 25 23 24 22 20 19 17 15 13 11 10 9 8 7 7 5 6 7 7 9 11 11 12 12 12 12 11 10 10
6 2 3 4 8 5 12 14 14 16 15 11 19 7 6 8 19 22 25 16 24 24 24 23 21 18 17 16 14 12 10 8 7 7 7 5 6 6 7 9 11 11 11 11 11 10 10 9 9
4 6 6 5 7 5 9 4 17 17 14 22 15 9 11 17 21 21 18 18 17 23 23 23 21 20 18 16 14 12 11 9 8 7 6 6 6 6 8 9 11 11 10 10 9 9 8 7 5
1 4 6 5 8 6 10 11 14 17 15 10 11 14 27 27 21 21 16 10 13 23 24 26 20 19 17 15 14 13 11 11 10 9 8 8 7 6 8 11 11 12 11 10 8 7 6 6 6
4 5 11 12 8 12 14 10 12 12 15 14 20 27 32 29 21 18 15 16 16 25 28 28 21 20 18 16 15 14 13 12 10 9 8 9 7 9 7 8 11 11 10 9 9 8 8 8 6
7 6 7 13 12 16 12 11 12 21 12 19 26 24 23 24 21 22 20 19 21 28 30 29 24 20 24 20 14 14 13 12 11 9 7 6 7 9 15 13 14 13 10 9 10 10 9 11 7
8 27 12 11 10 12 7 10 6 12 13 24 23 24 19 17 18 25 23 22 25 17 29 32 25 18 25 21 17 13 14 15 13 13 10 10 7 7 10 10 9 10 10 10 10 10 9 12 3
4 11 20 2 10 15 8 11 14 22 24 24 23 20 18 15 19 18 17 18 18 22 24 28 25 20 21 20 16 14 14 14 16 15 11 11 7 9 15 11 14 9 12 11 8 10 14 12 14
9 28 29 18 8 10 8 5 13 21 27 24 23 20 18 17 20 16 19 19 21 26 26 25 24 29 23 18 18 13 13 15 15 13 15 11 10 8 9 14 12 8 11 7 6 6 11 4 5
15 14 11 13 15 4 6 6 9 25 23 26 22 19 19 17 22 21 26 25 31 30 28 27 35 24 26 24 19 16 13 8 12 19 16 13 9 5 7 11 12 11 12 4 6 10 9 6 3
7 5 2 8 16 3 9 3 5 12 25 24 23 20 21 21 26 30 35 31 32 34 31 29 30 30 27 24 19 16 13 9 10 17 16 9 8 8 9 6 10 11 13 9 8 13 9 6 6
5 4 16 11 7 6 2 8 9 9 20 23 22 20 20 21 26 34 35 36 37 33 33 31 35 35 27 20 14 18 13 10 12 13 13 10 9 10 10 9 9 11 13 9 14 10 4 6 7
5 8 10 8 5 12 9 8 2 4 13 23 22 20 19 20 23 34 34 29 35 35 36 39 37 34 28 20 18 20 14 9 15 15 15 11 8 11 12 9 10 13 12 9 16 11 5 4 7
8 14 11 11 12 18 13 17 16 21 9 15 19 20 21 22 24 33 32 34 30 29 39 37 33 34 30 26 23 20 16 12 16 15 13 16 12 13 14 12 11 16 15 12 12 11 9 10 11
8 9 7 9 15 3 16 15 21 14 7 9 14 21 23 21 20 25 33 32 29 35 41 39 38 36 33 29 28 23 19 15 13 12 11 12 11 13 13 11 14 19 17 14 13 12 10 9 10
9 6 8 3 1 3 18 8 5 8 6 11 9 20 20 22 21 20 26 26 30 34 40 40 39 36 35 30 26 22 15 13 16 16 11 11 12 13 12 10 14 19 18 17 15 14 14 11 10
6 8 9 9 6 3 5 3 5 7 9 5 5 23 20 20 19 21 21 23 30 34 40 41 37 36 34 31 29 27 22 20 20 14 13 12 14 14 15 13 15 16 19 19 18 18 17 13 9
6 10 7 8 7 5 11 6 3 2 8 11 9 12 22 22 22 23 20 31 32 35 39 44 36 37 36 34 32 28 24 25 16 17 16 20 24 20 21 17 17 18 21 21 18 19 17 15 11
10 10 8 9 2 5 9 7 4 4 10 4 7 7 10 18 20 22 28 33 28 35 36 42 40 39 39 36 28 26 26 21 20 21 17 20 17 19 21 19 19 17 20 21 20 17 18 14 12
8 3 4 7 3 4 4 7 8 15 11 10 9 7 10 17 17 18 20 22 28 34 35 37 39 37 37 34 33 30 22 24 21 18 16 16 18 21 25 25 23 23 20 18 18 20 20 18 14
8 3 4 4 3 6 8 7 3 5 9 3 6 3 3 9 18 19 21 25 29 32 35 33 38 34 36 34 32 31 33 24 23 22 21 21 22 18 19 26 25 24 21 17 18 20 18 17 16
7 5 5 2 5 6 4 2 6 11 7 6 9 7 6 8 14 19 19 26 29 27 34 32 36 37 39 36 33 32 32 32 27 23 23 23 25 21 16 25 26 27 24 23 20 19 18 18 17
6 2 8 5 3 4 2 4 3 6 7 8 8 8 8 10 14 14 9 6 28 28 35 37 40 40 41 40 38 34 33 32 31 26 23 24 23 23 24 29 24 24 25 27 23 21 19 20 18
2 5 5 1 2 3 3 2 1 6 8 8 8 6 8 19 18 16 14 29 38 10 34 38 39 37 35 36 37 31 31 30 27 28 26 27 22 17 25 27 25 23 24 26 25 22 20 21 20
3 2 1 5 8 3 5 4 3 7 10 6 7 5 8 8 10 13 15 29 35 34 12 10 23 35 37 37 33 34 30 27 25 25 29 21 23 19 23 28 27 25 27 27 26 26 26 23 27
Wind_Direction
178 178 184 219 259 132 164 154 169 140 65 66 74 84 87 46 42 156 149 144 138 146 147 139 142 143 137 128 127 120 116 113 107 95 91 87 86 80 81 85 101 99 97 103 116 121 118 112 112
156 184 217 265 223 145 80 123 107 81 117 82 71 88 56 79 74 116 138 152 139 149 147 146 147 148 141 134 134 125 122 116 105 98 93 91 86 84 85 91 102 104 106 111 110 115 113 117 113
180 202 259 210 214 109 133 119 116 120 148 113 98 40 54 98 118 149 146 150 144 143 153 150 152 149 143 140 138 133 126 120 110 103 97 97 82 86 95 102 106 106 115 111 114 111 113 117 116
206 130 268 257 106 100 120 142 131 134 129 104 108 74 75 342 328 141 148 148 146 148 154 152 152 150 146 147 143 137 130 126 120 109 103 94 90 89 98 110 111 112 114 120 117 116 116 121 121
348 337 266 266 114 128 139 149 150 147 122 129 115 103 70 340 108 140 149 146 137 146 154 153 151 154 155 157 154 147 143 143 132 119 115 111 99 100 104 117 120 121 120 123 124 122 122 125 126
85 56 349 125 91 141 146 159 150 136 141 115 103 107 92 159 137 150 143 142 150 150 152 151 155 158 155 158 159 154 155 157 148 137 126 129 110 110 116 125 127 129 128 129 128 130 130 131 134
22 344 239 308 116 111 147 158 145 145 153 145 145 106 124 172 153 158 157 147 148 151 154 157 156 159 158 163 165 167 171 167 158 151 150 153 146 138 136 133 137 134 135 132 134 134 133 133 136
2 300 320 292 100 98 122 167 142 147 159 127 135 147 163 175 164 151 136 143 157 159 158 164 167 168 170 171 173 177 177 178 181 173 168 166 161 164 164 153 144 148 145 142 141 142 144 142 131
65 297 287 152 135 138 112 90 100 125 136 165 173 144 155 158 165 160 144 160 227 171 165 162 168 173 173 177 180 185 188 191 198 198 193 188 193 188 179 164 163 157 159 162 157 154 165 161 152
197 193 204 136 166 117 114 135 145 117 133 95 93 116 141 152 159 149 154 184 180 170 169 169 171 171 171 189 197 194 194 198 198 192 173 184 197 200 175 199 178 164 164 168 163 171 181 166 162
186 253 124 120 128 122 141 171 161 124 126 135 136 139 147 157 164 155 147 199 192 178 171 173 171 176 182 192 190 194 196 192 178 183 198 179 209 171 191 182 183 170 179 173 171 176 174 181 208
188 228 125 125 128 122 157 164 103 133 137 135 137 143 153 165 171 163 181 196 167 152 158 169 163 185 183 187 198 194 194 194 201 197 192 187 211 194 187 179 187 173 171 178 183 184 207 178 244
265 293 11 111 133 131 108 41 105 114 126 130 136 148 162 169 177 175 180 176 173 181 166 180 186 177 185 190 203 192 211 204 202 200 189 192 200 183 186 206 205 196 191 207 196 222 251 232 216
158 90 308 326 75 78 83 58 116 129 130 136 146 159 170 178 179 178 190 194 187 200 185 194 194 183 189 185 197 195 212 216 222 211 199 192 205 200 203 189 194 188 197 235 219 199 224 177 94
62 96 186 301 283 127 124 30 106 142 139 145 156 166 174 181 181 189 196 201 200 196 194 193 191 192 184 188 192 196 179 165 180 193 200 194 211 225 188 192 215 219 214 242 216 186 193 215 124
103 81 140 356 272 287 90 328 268 155 147 153 162 172 178 186 184 195 206 206 206 197 206 191 179 178 187 190 201 201 190 170 148 174 189 199 210 206 185 219 221 210 212 211 220 189 216 219 195
63 76 45 334 274 251 75 230 196 168 164 161 167 178 181 186 190 203 207 207 201 199 191 181 176 180 183 189 200 186 179 192 190 186 189 200 200 223 229 221 230 205 194 208 198 205 199 193 234
193 119 94 288 276 186 208 227 261 203 168 168 172 179 183 187 196 200 207 196 188 186 179 179 176 179 185 184 180 192 205 223 202 203 206 196 182 247 222 214 205 209 197 186 201 194 199 227 227
206 143 170 229 258 215 213 71 48 13 10 175 176 183 187 191 195 199 199 198 195 189 182 181 180 181 179 179 184 196 208 215 208 210 211 203 236 216 227 207 198 203 199 188 200 190 209 238 241
351 307 220 207 255 124 99 102 170 168 183 192 203 186 190 189 194 193 197 195 189 175 179 183 184 184 187 186 187 188 194 214 206 202 217 207 195 208 202 207 203 194 197 196 199 199 188 239 197
288 279 308 249 289 33 116 122 279 196 212 159 211 196 188 189 192 192 187 183 184 175 176 180 181 185 191 189 185 191 195 198 209 222 228 213 211 224 202 206 198 191 198 196 212 202 214 213 195
285 329 339 339 21 228 164 105 241 280 293 295 217 190 190 185 187 184 179 177 179 176 179 179 181 185 189 185 184 188 193 196 210 208 203 216 212 220 215 200 195 196 204 205 203 206 219 222 221
285 289 302 301 289 329 302 98 294 326 264 269 275 181 188 186 184 179 177 179 176 175 170 179 177 180 178 182 186 190 204 217 209 202 205 197 219 218 211 203 195 197 202 206 211 213 211 223 222
280 289 280 258 200 13 271 118 279 203 229 272 268 269 183 177 181 175 176 173 171 170 168 176 179 181 185 189 190 198 207 201 195 198 197 207 196 203 210 203 198 201 205 211 206 209 205 221 224
336 311 325 1 356 181 147 85 217 209 236 246 202 176 203 176 172 167 172 173 175 165 169 173 177 181 189 194 201 206 209 206 202 199 218 209 194 200 206 206 200 204 208 209 210 206 206 212 223
307 29 124 323 323 255 170 173 277 148 185 330 114 31 68 170 173 169 172 170 174 166 170 171 177 178 188 195 202 211 215 211 206 209 218 216 204 203 213 214 203 199 211 210 213 211 216 212 214
306 10 259 320 313 74 80 24 47 158 208 95 55 41 356 312 185 171 169 164 171 163 169 170 175 183 192 196 203 211 219 225 221 219 222 226 209 203 228 220 212 201 205 208 216 216 216 215 219
200 276 356 2 5 339 27 45 161 72 73 82 54 15 322 322 176 157 123 102 162 164 169 177 182 185 194 201 205 207 215 222 226 222 223 232 222 202 211 206 211 212 215 207 216 226 225 215 225
316 2 353 94 113 207 117 286 106 95 79 87 65 359 6 28 60 90 72 44 13 167 172 177 185 187 189 193 204 208 214 221 224 220 225 230 232 220 204 203 205 210 219 215 214 218 220 222 223
56 328 353 114 300 285 140 248 95 31 51 104 101 46 22 88 87 99 80 35 344 310 82 135 188 185 190 193 194 202 212 216 222 226 227 230 229 213 203 207 205 207 213 212 214 216 220 222 219